This demonstration page uses our WeatherBlox Daily Observations layout. Learn more.

Left ArrowRight Arrow

53.62937, 11.41316

Hourly Observations for February 28, 2021

Temp ( °F °C ) Dew Point ( °F °C ) Humidity (%) Winds ( mph kmh ) Pressure ( in mb ) Visibility ( mi km ) Precip ( " mm )
8:50 am 08:50 Mostly Cloudy 41 5 39 4 93 93 SW 3 6 30.62 1037 30 48 N/A
9:20 am 09:20 Mostly Cloudy 41 5 41 5 100 100 SW 3 6 30.62 1037 30 48 N/A
9:50 am 09:50 Mostly Cloudy 43 6 41 5 93 93 WSW 5 7 30.62 1037 30 48 N/A
10:20 am 10:20 Mostly Cloudy 43 6 41 5 93 93 WSW 6 9 30.62 1037 30 48 N/A
10:50 am 10:50 Mostly Cloudy 45 7 41 5 87 87 WSW 7 11 30.62 1037 30 48 N/A
11:20 am 11:20 Mostly Cloudy 45 7 41 5 87 87 WSW 6 9 30.62 1037 30 48 N/A
11:50 am 11:50 Partly Cloudy 46 8 41 5 82 82 WSW 7 11 30.62 1037 30 48 N/A
12:20 pm 12:20 Partly Cloudy 46 8 41 5 82 82 WSW 8 13 30.62 1037 30 48 N/A
12:50 pm 12:50 Partly Cloudy 48 9 41 5 76 76 WSW 7 11 30.59 1036 30 48 N/A
1:20 pm 13:20 Partly Cloudy 48 9 39 4 71 71 SW 8 13 30.59 1036 30 48 N/A
1:50 pm 13:50 Mostly Cloudy 48 9 39 4 71 71 WSW 8 13 30.59 1036 30 48 N/A
2:20 pm 14:20 Partly Cloudy 50 10 39 4 67 67 SW 8 13 30.59 1036 30 48 N/A
2:50 pm 14:50 Partly Cloudy 50 10 41 5 71 71 SW 9 15 30.59 1036 30 48 N/A
3:20 pm 15:20 Partly Cloudy 48 9 39 4 71 71 SW 12 19 30.59 1036 30 48 N/A
3:50 pm 15:50 Partly Cloudy 50 10 39 4 67 67 SW 9 15 30.56 1035 30 48 N/A
4:20 pm 16:20 Partly Cloudy 50 10 39 4 67 67 SW 8 13 30.56 1035 30 48 N/A
4:50 pm 16:50 Partly Cloudy 48 9 37 3 66 66 WSW 6 9 30.56 1035 30 48 N/A
5:20 pm 17:20 Partly Cloudy 46 8 39 4 76 76 WSW 6 9 30.57 1035 30 48 N/A
5:50 pm 17:50 Mostly Sunny 45 7 37 3 76 76 WSW 3 6 30.57 1035 30 48 N/A
6:20 pm 18:20 Mostly Clear 45 7 37 3 76 76 WSW 3 6 30.57 1035 30 48 N/A
6:50 pm 18:50 Partly Cloudy 43 6 39 4 87 87 WSW 5 7 30.57 1035 30 48 N/A
7:20 pm 19:20 Mostly Cloudy 43 6 39 4 87 87 WSW 6 9 30.57 1035 30 48 N/A
7:50 pm 19:50 Mostly Cloudy 43 6 39 4 87 87 WSW 7 11 30.57 1035 30 48 N/A

Powered by AerisWeather